Location: Lombard
(41.8800°N, 88.0080°W)
Time: 16:19:57
(UTC-06:00)

Vanguard 3 - Pass Details

Date: 10 December 2023
Orbit: 508 x 3239 km, 33.4° (Epoch: 23 February)

Event Time Altitude Azimuth Distance (km) Brightness Sun altitude
Rises 21:31:02 0° 255° (WSW) 6,757 12.2 -56.3°
Reaches altitude 10° 21:36:10 10° 252° (WSW) 5,416 11.6 -57.2°
Enters shadow 21:42:48 28° 242° (WSW) 3,629 10.4 -58.3°
